Weather History for Redwood Falls, MN

Change the Weather History Date:

Friday, October 11, 2013

  Actual Average Record
Temperature  
Mean Temperature 62 °F -  
Max Temperature 70 °F 63 °F 86 °F (1934)
Min Temperature 53 °F 40 °F 22 °F (1987)
Degree Days  
Heating Degree Days 4    
Growing Degree Days 12 (Base 50)    
Moisture  
Dew Point 54 °F    
Average Humidity 76    
Maximum Humidity 94    
Minimum Humidity 57    
Precipitation  
Precipitation 0.47 in - - ()
Sea Level Pressure  
Sea Level Pressure 29.64 in    
Wind  
Wind Speed 17 mph (SSE)    
Max Wind Speed 33 mph    
Max Gust Speed 43 mph    
Visibility 8 miles    
Events Rain , Thunderstorm    
Averages and records for this station are not official NWS values.
T = Trace of Precipitation, MM = Missing Value Source: NWS Daily Summary

Daily Weather History Graph

Daily Weather History Graph

Search for Another Location

Airport:

Trip Planner

Search our weather history database for the weather conditions in past years. The results will help you decide how hot, cold, wet, or windy it might be!

Date:

Astronomy

Oct. 11, 2013 Rise Set
Actual Time 7:30 AM CDT 6:42 PM CDT
Civil Twilight 7:01 AM CDT 7:11 PM CDT
Nautical Twilight 6:27 AM CDT 7:45 PM CDT
Astronomical Twilight 5:54 AM CDT 8:18 PM CDT
Moon 2:20 PM CDT (10/11) No Moon Set
Length of Visible Light 12h 09m
Length of Day
11h 11m
Waxing Crescent, 47% of the Moon is Illuminated
Oct 11
Waxing Crescent
Oct 11
First Quarter
Oct 18
Full
Oct 26
Last Quarter
Nov 3
New

Hourly Weather History & Observations

Time (CDT) Temp. Dew Point Humidity Pressure Visibility Wind Dir Wind Speed Gust Speed Precip Events Conditions
12:53 AM 62.1 °F 48.9 °F 62% 29.77 in 10.0 mi SSE 15.0 mph - N/A   Clear
1:53 AM 60.1 °F 50.0 °F 69% 29.78 in 10.0 mi SSE 11.5 mph - N/A   Clear
2:53 AM 60.1 °F 50.0 °F 69% 29.76 in 10.0 mi SSE 16.1 mph - N/A   Clear
3:53 AM 61.0 °F 50.0 °F 67% 29.77 in 10.0 mi SSE 16.1 mph - N/A   Clear
4:53 AM 59.0 °F 51.1 °F 75% 29.75 in 10.0 mi SE 13.8 mph - N/A   Clear
5:53 AM 59.0 °F 51.1 °F 75% 29.73 in 10.0 mi SE 16.1 mph - N/A   Clear
6:53 AM 60.1 °F 52.0 °F 75% 29.72 in 10.0 mi SE 18.4 mph 26.5 mph N/A   Clear
7:53 AM 59.0 °F 52.0 °F 78% 29.71 in 10.0 mi SE 15.0 mph 24.2 mph N/A   Clear
8:53 AM 60.1 °F 52.0 °F 75% 29.69 in 10.0 mi SE 17.3 mph 23.0 mph N/A   Clear
9:53 AM 63.0 °F 53.1 °F 70% 29.66 in 10.0 mi SE 18.4 mph 28.8 mph N/A   Clear
10:53 AM 64.9 °F 54.0 °F 68% 29.66 in 10.0 mi SSE 24.2 mph 31.1 mph N/A   Scattered Clouds
11:53 AM 64.0 °F 55.0 °F 73% 29.64 in 10.0 mi SSE 15.0 mph 25.3 mph 0.00 in   Overcast
12:29 PM 64.4 °F 55.4 °F 73% 29.65 in 10.0 mi South 13.8 mph - N/A Thunderstorm Thunderstorm
12:36 PM 62.6 °F 57.2 °F 82% 29.63 in 1.8 mi SSE 17.3 mph 23.0 mph 0.16 in Rain , Thunderstorm Heavy Thunderstorms and Rain
12:46 PM 62.6 °F 57.2 °F 82% 29.62 in 4.0 mi SSE 21.9 mph 31.1 mph 0.16 in Rain , Thunderstorm Light Thunderstorms and Rain
12:53 PM 61.0 °F 57.9 °F 90% 29.60 in 9.0 mi SSE 17.3 mph 26.5 mph 0.16 in Rain , Thunderstorm Light Thunderstorms and Rain
1:13 PM 60.8 °F 59.0 °F 94% 29.65 in 2.0 mi SSW 13.8 mph 21.9 mph 0.11 in Rain , Thunderstorm Light Thunderstorms and Rain
1:19 PM 60.8 °F 59.0 °F 94% 29.61 in 0.8 mi SSE 12.7 mph 18.4 mph 0.23 in Rain , Thunderstorm Heavy Thunderstorms and Rain
1:25 PM 60.8 °F 59.0 °F 94% 29.62 in 1.2 mi South 13.8 mph - 0.24 in Rain , Thunderstorm Light Thunderstorms and Rain
1:33 PM 60.8 °F 59.0 °F 94% 29.60 in 2.0 mi SSE 16.1 mph 23.0 mph 0.27 in Rain , Thunderstorm Heavy Thunderstorms and Rain
1:47 PM 62.6 °F 60.8 °F 94% 29.58 in 4.0 mi SSE 19.6 mph 25.3 mph 0.30 in Rain Light Rain
1:53 PM 62.1 °F 60.1 °F 93% 29.58 in 10.0 mi SSE 18.4 mph 25.3 mph 0.30 in Thunderstorm Overcast
2:22 PM 66.2 °F 60.8 °F 83% 29.55 in 10.0 mi SSE 24.2 mph 36.8 mph N/A   Overcast
2:53 PM 66.0 °F 60.1 °F 81% 29.54 in 10.0 mi SSE 25.3 mph 41.4 mph N/A   Overcast
3:53 PM 68.0 °F 60.1 °F 76% 29.55 in 10.0 mi SSE 33.4 mph 41.4 mph N/A   Scattered Clouds
4:53 PM 70.0 °F 57.9 °F 65% 29.55 in 10.0 mi SSE 28.8 mph 42.6 mph N/A   Partly Cloudy
5:53 PM 69.1 °F 57.9 °F 68% 29.54 in 10.0 mi SSE 21.9 mph 31.1 mph N/A   Scattered Clouds
6:53 PM 68.0 °F 59.0 °F 73% 29.52 in 10.0 mi SSE 23.0 mph 34.5 mph 0.00 in Rain , Thunderstorm Light Rain
7:04 PM 66.2 °F 59.0 °F 78% 29.52 in 10.0 mi SSE 26.5 mph 34.5 mph 0.01 in Rain , Thunderstorm Light Rain
7:19 PM 66.2 °F 59.0 °F 78% 29.57 in 10.0 mi SSW 13.8 mph - 0.01 in   Overcast
7:53 PM 66.9 °F 51.1 °F 57% 29.59 in 10.0 mi SSW 13.8 mph - 0.01 in   Overcast
8:53 PM 63.0 °F 48.9 °F 60% 29.63 in 10.0 mi WSW 16.1 mph - N/A   Partly Cloudy
9:53 PM 55.9 °F 46.0 °F 69% 29.67 in 10.0 mi WSW 16.1 mph 24.2 mph N/A   Clear
10:53 PM 54.0 °F 46.0 °F 75% 29.70 in 10.0 mi SW 17.3 mph 24.2 mph N/A   Scattered Clouds
11:02 PM 53.6 °F 44.6 °F 72% 29.70 in 10.0 mi SW 15.0 mph 23.0 mph N/A   Mostly Cloudy
11:53 PM 53.1 °F 43.0 °F 69% 29.73 in 10.0 mi WSW 15.0 mph - N/A   Mostly Cloudy